User: anonymous   Login
Location: Guayaquil
(2.1667°S, 79.9000°W)
Time: 13:21:41
(UTC-05:00)
Language:

NEE 01 PEGASUS - Orbit

View from above orbital plane
View from above orbital plane
View from above satellite
View from above satellite

Ground track
Ground track

The orbit data is extracted from the following two-line orbital elements,

1 39151U 13018B   21135.77792024  .00000236  00000-0  37862-4 0  9993
2 39151  97.9766 238.4284 0018428 103.3500 256.9768 14.80339370434834
Epoch (UTC): 15 May 2021 18:40:12
Eccentricity: 0.0018428
inclination: 97.9766°
perigee height: 615 km
apogee height: 641 km
right ascension of ascending node: 238.4284°
argument of perigee: 103.3500°
revolutions per day: 14.80339370
mean anomaly at epoch: 256.9768°
orbit number at epoch: 43483

The dashed part of the orbit path shows where the satellite is in the earth's shadow,  

DLR